Location: Ammerl�gen
(47.2167°N, 9.6000°E)
Time: 11:06:36
(UTC+00:00)

BREEZE-M DEB (TANK) - Pass Details

Date: 21 April 2021
Orbit: 793 x 34259 km, 45.8° (Epoch: 06 May)

Event Time Altitude Azimuth Distance (km) Brightness Sun altitude
Rises 19:06:10 0° 259° (W) 4,342 8.3 -8.2°
Reaches altitude 10° 19:09:18 10° 258° (WSW) 2,744 7.2 -8.6°
Maximum altitude 19:14:10 75° 173° (S) 822 3.6 -9.3°
Drops below altitude 10° 19:19:22 10° 88° (E) 2,925 6.0 -10.1°
Enters shadow 19:20:40 - 87° (E) 3,585 6.4 -10.3°
